When you browse on this site, cookies collect data to enhance your experience and personalize the content and advertising you see.
Visit our Privacy Policy to learn more. By continuing to use the site, you agree to this use of cookies and data.
  • In United Kingdom
  • List of Countries
  • For 7 days
  • Water Temperature
  • Satellite Maps
  • Weather Map
  • Weather Widgets
  • user-avatar
    Login

    Hourly Weather Shaki

    Today, 26 April, Friday

    Time Temperature Precipitation Wind Pressure Humidity
    00:00 +10°C° 0.1 mm 2 mps 743 mmHg 62%
    01:00 +10°C° 0 mm 2 mps 742 mmHg 61%
    02:00 +9°C° 0 mm 2 mps 742 mmHg 59%
    03:00 +10°C° 0 mm 1 mps 741 mmHg 57%
    04:00 +11°C° 0 mm 1 mps 741 mmHg 56%
    05:00 +11°C° 0 mm 1 mps 742 mmHg 55%
    06:00 +10°C° 0 mm 2 mps 742 mmHg 54%
    07:00 +13°C° 0 mm 2 mps 741 mmHg 53%
    08:00 +15°C° 0 mm 2 mps 741 mmHg 51%
    09:00 +16°C° 0 mm 1 mps 741 mmHg 49%
    10:00 +17°C° 0 mm 2 mps 741 mmHg 48%
    11:00 +18°C° 0 mm 2 mps 740 mmHg 47%
    12:00 +19°C° 0 mm 2 mps 740 mmHg 46%
    13:00 +19°C° 0 mm 2 mps 740 mmHg 46%
    14:00 +20°C° 0 mm 2 mps 739 mmHg 45%
    15:00 +20°C° 0 mm 2 mps 739 mmHg 44%
    16:00 +20°C° 0 mm 1 mps 739 mmHg 46%
    17:00 +19°C° 0 mm 1 mps 739 mmHg 49%
    18:00 +19°C° 0 mm 1 mps 739 mmHg 52%
    19:00 +16°C° 0 mm 2 mps 739 mmHg 53%
    20:00 +15°C° 0 mm 2 mps 739 mmHg 55%
    21:00 +14°C° 0 mm 2 mps 740 mmHg 56%
    22:00 +13°C° 0 mm 2 mps 740 mmHg 56%
    23:00 +13°C° 0 mm 2 mps 740 mmHg 57%

    Tomorrow, 27 April, Saturday

    Time Temperature Precipitation Wind Pressure Humidity
    00:00 +12°C° 0 mm 2 mps 739 mmHg 57%
    01:00 +12°C° 0 mm 2 mps 739 mmHg 57%
    02:00 +12°C° 0 mm 2 mps 739 mmHg 58%
    03:00 +12°C° 0 mm 2 mps 739 mmHg 58%
    04:00 +12°C° 0 mm 1 mps 739 mmHg 58%
    05:00 +12°C° 0 mm 1 mps 739 mmHg 58%
    06:00 +13°C° 0 mm 1 mps 739 mmHg 58%
    07:00 +14°C° 0 mm 1 mps 739 mmHg 55%
    08:00 +16°C° 0 mm 2 mps 739 mmHg 53%
    09:00 +18°C° 0 mm 2 mps 738 mmHg 50%
    10:00 +18°C° 0 mm 2 mps 738 mmHg 48%
    11:00 +19°C° 0 mm 2 mps 738 mmHg 46%
    12:00 +20°C° 0 mm 2 mps 737 mmHg 45%
    13:00 +20°C° 0 mm 2 mps 737 mmHg 44%
    14:00 +21°C° 0 mm 2 mps 737 mmHg 43%
    15:00 +21°C° 0 mm 2 mps 736 mmHg 42%
    16:00 +20°C° 0 mm 2 mps 736 mmHg 45%
    17:00 +19°C° 0 mm 2 mps 736 mmHg 49%
    18:00 +18°C° 0 mm 2 mps 736 mmHg 52%
    19:00 +16°C° 0 mm 2 mps 736 mmHg 55%
    20:00 +15°C° 0 mm 2 mps 736 mmHg 57%
    21:00 +13°C° 0 mm 3 mps 736 mmHg 59%
    22:00 +13°C° 0 mm 2 mps 736 mmHg 58%
    23:00 +13°C° 0 mm 2 mps 736 mmHg 57%

    Day after tomorrow, 28 April, Sunday

    Time Temperature Precipitation Wind Pressure Humidity
    00:00 +12°C° 0 mm 2 mps 736 mmHg 55%
    01:00 +12°C° 0 mm 2 mps 736 mmHg 53%
    02:00 +10°C° 0 mm 2 mps 736 mmHg 52%
    03:00 +10°C° 0 mm 2 mps 735 mmHg 50%
    04:00 +12°C° 0 mm 2 mps 735 mmHg 48%
    05:00 +12°C° 0 mm 2 mps 735 mmHg 47%
    06:00 +13°C° 0 mm 2 mps 735 mmHg 46%
    07:00 +15°C° 0 mm 2 mps 734 mmHg 42%
    08:00 +17°C° 0 mm 3 mps 734 mmHg 38%
    09:00 +19°C° 0 mm 3 mps 734 mmHg 34%
    10:00 +20°C° 0 mm 3 mps 734 mmHg 35%
    11:00 +21°C° 0 mm 3 mps 733 mmHg 35%
    12:00 +22°C° 0 mm 3 mps 733 mmHg 35%
    13:00 +22°C° 0 mm 3 mps 733 mmHg 35%
    14:00 +24°C° 0 mm 3 mps 732 mmHg 34%
    15:00 +24°C° 0 mm 2 mps 732 mmHg 33%
    16:00 +23°C° 0 mm 2 mps 732 mmHg 35%
    17:00 +21°C° 0 mm 2 mps 732 mmHg 38%
    18:00 +19°C° 0 mm 2 mps 732 mmHg 40%
    19:00 +18°C° 0 mm 2 mps 733 mmHg 37%
    20:00 +17°C° 0 mm 2 mps 733 mmHg 34%
    21:00 +16°C° 0 mm 2 mps 733 mmHg 31%
    22:00 +15°C° 0 mm 2 mps 733 mmHg 32%
    23:00 +15°C° 0 mm 2 mps 733 mmHg 33%

    29 April, Monday

    Time Temperature Precipitation Wind Pressure Humidity
    00:00 +14°C° 0 mm 2 mps 733 mmHg 34%
    01:00 +14°C° 0 mm 2 mps 733 mmHg 36%
    02:00 +14°C° 0 mm 2 mps 733 mmHg 39%
    03:00 +14°C° 0 mm 2 mps 733 mmHg 41%
    04:00 +14°C° 0 mm 2 mps 733 mmHg 45%
    05:00 +14°C° 0 mm 2 mps 733 mmHg 49%
    06:00 +15°C° 0 mm 2 mps 733 mmHg 52%
    07:00 +17°C° 0 mm 3 mps 733 mmHg 46%
    08:00 +19°C° 0 mm 3 mps 734 mmHg 40%
    09:00 +21°C° 0 mm 3 mps 734 mmHg 34%
    10:00 +22°C° 0 mm 3 mps 733 mmHg 32%
    11:00 +23°C° 0 mm 4 mps 733 mmHg 30%
    12:00 +25°C° 0 mm 4 mps 733 mmHg 28%
    13:00 +25°C° 0 mm 3 mps 733 mmHg 26%
    14:00 +26°C° 0 mm 3 mps 733 mmHg 24%
    15:00 +26°C° 0 mm 3 mps 732 mmHg 23%
    16:00 +25°C° 0 mm 2 mps 732 mmHg 25%
    17:00 +23°C° 0 mm 1 mps 732 mmHg 28%
    18:00 +22°C° 0 mm 1 mps 732 mmHg 31%
    19:00 +21°C° 0 mm 1 mps 733 mmHg 27%
    20:00 +19°C° 0 mm 2 mps 733 mmHg 22%
    21:00 +18°C° 0 mm 2 mps 734 mmHg 18%
    22:00 +18°C° 0 mm 2 mps 734 mmHg 20%
    23:00 +18°C° 0 mm 1 mps 734 mmHg 21%

    30 April, Tuesday

    Time Temperature Precipitation Wind Pressure Humidity
    00:00 +18°C° 0 mm 1 mps 734 mmHg 23%
    01:00 +18°C° 0.1 mm 1 mps 734 mmHg 28%
    02:00 +16°C° 0.1 mm 1 mps 734 mmHg 34%
    03:00 +16°C° 0.1 mm 1 mps 734 mmHg 40%
    04:00 +16°C° 0.1 mm 2 mps 734 mmHg 45%
    05:00 +16°C° 0.1 mm 2 mps 734 mmHg 50%
    06:00 +16°C° 0.1 mm 2 mps 734 mmHg 54%
    07:00 +18°C° 0 mm 2 mps 734 mmHg 50%
    08:00 +20°C° 0 mm 2 mps 734 mmHg 46%
    09:00 +21°C° 0 mm 3 mps 734 mmHg 41%
    10:00 +22°C° 0 mm 3 mps 733 mmHg 40%
    11:00 +24°C° 0 mm 3 mps 733 mmHg 38%
    12:00 +25°C° 0 mm 3 mps 733 mmHg 37%
    13:00 +25°C° 0 mm 2 mps 732 mmHg 36%
    14:00 +26°C° 0 mm 2 mps 732 mmHg 35%
    15:00 +26°C° 0 mm 2 mps 732 mmHg 34%
    16:00 +25°C° 0.2 mm 1 mps 732 mmHg 37%
    17:00 +24°C° 0.2 mm 1 mps 732 mmHg 40%
    18:00 +22°C° 0.2 mm 1 mps 732 mmHg 44%
    19:00 +21°C° 0.3 mm 1 mps 732 mmHg 43%
    20:00 +19°C° 0.3 mm 2 mps 732 mmHg 42%
    21:00 +18°C° 0.3 mm 3 mps 733 mmHg 42%
    22:00 +18°C° 0.6 mm 3 mps 733 mmHg 46%
    23:00 +17°C° 0.6 mm 2 mps 733 mmHg 49%

    1 May, Wednesday

    Time Temperature Precipitation Wind Pressure Humidity
    00:00 +17°C° 0.6 mm 2 mps 732 mmHg 53%
    01:00 +17°C° 0 mm 2 mps 732 mmHg 56%
    02:00 +16°C° 0 mm 3 mps 732 mmHg 58%
    03:00 +14°C° 0 mm 3 mps 731 mmHg 61%
    04:00 +16°C° 0 mm 3 mps 731 mmHg 59%
    05:00 +16°C° 0 mm 3 mps 731 mmHg 56%
    06:00 +16°C° 0 mm 3 mps 731 mmHg 54%
    07:00 +18°C° 0 mm 4 mps 731 mmHg 48%
    08:00 +21°C° 0 mm 5 mps 731 mmHg 42%
    09:00 +23°C° 0 mm 5 mps 731 mmHg 36%
    10:00 +25°C° 0 mm 5 mps 730 mmHg 33%
    11:00 +27°C° 0 mm 5 mps 730 mmHg 31%
    12:00 +28°C° 0 mm 5 mps 730 mmHg 28%
    13:00 +28°C° 0 mm 5 mps 730 mmHg 27%
    14:00 +28°C° 0 mm 5 mps 729 mmHg 26%
    15:00 +28°C° 0 mm 5 mps 729 mmHg 26%
    16:00 +27°C° 0 mm 4 mps 729 mmHg 28%
    17:00 +26°C° 0 mm 3 mps 730 mmHg 31%
    18:00 +24°C° 0 mm 2 mps 730 mmHg 34%
    19:00 +23°C° 0 mm 2 mps 730 mmHg 32%
    20:00 +21°C° 0 mm 2 mps 730 mmHg 31%
    21:00 +20°C° 0 mm 2 mps 731 mmHg 30%
    22:00 +20°C° 0.2 mm 2 mps 731 mmHg 33%
    23:00 +19°C° 0.2 mm 2 mps 731 mmHg 35%
    Show more